Weather History for KGKJ - October, 2013

Change the Weather History Date:

Monday, October 21, 2013

  Actual Average Record
Temperature  
Mean Temperature 53 °F -  
Max Temperature 61 °F 56 °F 79 °F (1963)
Min Temperature 45 °F 37 °F 18 °F (1952)
Degree Days  
Heating Degree Days 12    
Growing Degree Days 3 (Base 50)    
Moisture  
Dew Point 37 °F    
Average Humidity 58    
Maximum Humidity 86    
Minimum Humidity 39    
Precipitation  
Precipitation 0.01 in - - ()
Sea Level Pressure  
Sea Level Pressure 29.93 in    
Wind  
Wind Speed 9 mph (SSW)    
Max Wind Speed 15 mph    
Max Gust Speed 24 mph    
Visibility 10 miles    
Events Rain    
Averages and records for this station are not official NWS values.
T = Trace of Precipitation, MM = Missing Value Source: NWS Daily Summary

Daily Weather History Graph

Daily Weather History Graph

Search for Another Location

Airport or City:

Trip Planner

Search our weather history database for the weather conditions in past years. The results will help you decide how hot, cold, wet, or windy it might be!

Date:

Astronomy

Oct. 21, 2013 Rise Set
Actual Time 7:40 AM EDT 6:30 PM EDT
Civil Twilight 7:11 AM EDT 6:58 PM EDT
Nautical Twilight 6:39 AM EDT 7:30 PM EDT
Astronomical Twilight 6:07 AM EDT 8:02 PM EDT
Moon 8:19 PM EDT (10/21) 10:15 AM EDT (10/21)
Length of Visible Light 11h 46m
Length of Day
10h 50m
Waning Gibbous, 93% of the Moon is Illuminated
Oct 21
Waning Gibbous
Oct 26
Last Quarter
Nov 3
New
Nov 10
First Quarter
Nov 17
Full

Hourly Weather History & Observations

Time (EDT) Temp. Windchill Dew Point Humidity Pressure Visibility Wind Dir Wind Speed Gust Speed Precip Events Conditions
12:53 AM 46.0 °F 41.9 °F 36.0 °F 68% 29.99 in 10.0 mi South 8.1 mph - N/A   Clear
1:53 AM 46.0 °F 41.9 °F 36.0 °F 68% 29.99 in 10.0 mi South 8.1 mph - N/A   Clear
2:53 AM 45.0 °F 41.2 °F 35.1 °F 68% 30.00 in 10.0 mi South 6.9 mph - N/A   Clear
3:53 AM 46.0 °F 42.5 °F 36.0 °F 68% 30.01 in 10.0 mi Variable 6.9 mph - N/A   Overcast
4:53 AM 46.9 °F - 35.1 °F 63% 30.01 in 10.0 mi SSW 10.4 mph 17.3 mph N/A   Mostly Cloudy
5:53 AM 46.0 °F 41.9 °F 36.0 °F 68% 30.01 in 10.0 mi South 8.1 mph - N/A   Mostly Cloudy
6:53 AM 46.0 °F 41.9 °F 35.1 °F 66% 30.01 in 10.0 mi South 8.1 mph 16.1 mph N/A   Clear
7:53 AM 45.0 °F 40.1 °F 35.1 °F 68% 30.01 in 10.0 mi South 9.2 mph - N/A   Clear
8:53 AM 46.0 °F 43.1 °F 36.0 °F 68% 30.01 in 10.0 mi South 5.8 mph 17.3 mph N/A   Clear
9:53 AM 51.1 °F - 37.0 °F 59% 30.00 in 10.0 mi South 9.2 mph - N/A   Partly Cloudy
10:53 AM 54.0 °F - 37.0 °F 53% 29.99 in 10.0 mi SSW 10.4 mph 20.7 mph N/A   Clear
11:53 AM 57.0 °F - 37.0 °F 47% 29.97 in 10.0 mi SSW 12.7 mph 19.6 mph N/A   Clear
12:53 PM 57.9 °F - 37.9 °F 47% 29.96 in 10.0 mi SSW 10.4 mph 19.6 mph N/A   Clear
1:53 PM 60.1 °F - 37.9 °F 44% 29.92 in 10.0 mi SSW 11.5 mph 20.7 mph N/A   Clear
2:53 PM 60.1 °F - 37.0 °F 42% 29.89 in 10.0 mi SSW 12.7 mph 23.0 mph N/A   Clear
3:53 PM 61.0 °F - 36.0 °F 39% 29.87 in 10.0 mi South 13.8 mph 23.0 mph N/A   Clear
4:53 PM 61.0 °F - 36.0 °F 39% 29.85 in 10.0 mi SSW 12.7 mph 19.6 mph N/A   Clear
5:53 PM 59.0 °F - 36.0 °F 42% 29.86 in 10.0 mi SSW 5.8 mph - N/A   Clear
6:53 PM 55.9 °F - 36.0 °F 47% 29.86 in 10.0 mi South 4.6 mph - N/A   Clear
7:53 PM 55.9 °F - 36.0 °F 47% 29.86 in 10.0 mi Variable 5.8 mph - N/A   Mostly Cloudy
8:53 PM 55.9 °F - 36.0 °F 47% 29.85 in 10.0 mi SSW 6.9 mph - N/A   Overcast
9:53 PM 55.9 °F - 37.9 °F 51% 29.84 in 10.0 mi WNW 6.9 mph 19.6 mph N/A   Overcast
10:32 PM 53.6 °F - 46.4 °F 77% 29.86 in 10.0 mi West 13.8 mph 24.2 mph N/A   Overcast
10:53 PM 51.1 °F - 44.1 °F 77% 29.86 in 10.0 mi West 15.0 mph 24.2 mph N/A   Overcast
11:53 PM 48.9 °F - 45.0 °F 86% 29.85 in 7.0 mi WSW 5.8 mph - 0.01 in Rain Light Rain